Regional Weather Roundup
Issued by NWS Albany, NY

Home | Current Version | Previous Version | Text Only | Print | Product List | Glossary On
Versions: 1 2 3 4 5 6 7 8 9 10 11 12 13 14 15 16 17 18 19 20 21 22 23 24 25 26 27 28 29 30 31 32 33 34 35 36 37 38 39 40 41 42 43 44 45 46 47 48 49 50
000
ASUS41 KALY 011810
RWRALY

NEW YORK STATE HOURLY WEATHER ROUNDUP
NATIONAL WEATHER SERVICE ALBANY NY
200 PM EDT SAT AUG 01 2015

NOTE: "FAIR" INDICATES FEW OR NO CLOUDS BELOW 12,000 FEET WITH NO
SIGNIFICANT WEATHER AND/OR NO OBSTRUCTIONS TO VISIBILITY.

NYZ032-033-038>043-046>054-057>066-NYZ062>081-011900-
EAST


CITY           SKY/WX    TMP DP  RH WIND       PRES   REMARKS
ALBANY         MOSUNNY   83  55  38 W15       29.78F
GLENS FALLS    MOSUNNY   81  55  40 SW17G23   29.74F
POUGHKEEPSIE   MOSUNNY   86  56  35 W10       29.77S
NEWBURGH       MOSUNNY   84  59  42 W18G25    29.80F
MONTGOMERY     MOSUNNY   85  59  41 NW14      29.80S
WHITE PLAINS   MOSUNNY   83  57  41 VRB5G17   29.79F
ISLIP          PTSUNNY   89  63  41 SW14      29.77S HX  90
NEW YORK CITY  MOSUNNY   89  53  29 W15G28    29.78F
CENTRAL PARK   SUNNY     88  53  30 W12G20    29.82F
$$

NYZ005>009-017-018-044>046-055-056-011900-
CENTRAL


CITY           SKY/WX    TMP DP  RH WIND       PRES   REMARKS
FULTON         SUNNY     75  55  49 W14G24    29.84S
SYRACUSE       PTSUNNY   79  57  46 W17G24    29.82S
ROME           PTSUNNY   74  56  53 W17G23    29.83S
ELMIRA         MOSUNNY   80  56  43 NW13G20   29.85F
BINGHAMTON     SUNNY     74  54  49 W12G18    29.87F
MONTICELLO     MOSUNNY   79  57  47 MISG      29.87S
$$

NYZ026>034-041>043-011900-
NORTH


CITY           SKY/WX    TMP DP  RH WIND       PRES   REMARKS
WATERTOWN      SUNNY     74  60  61 W14G22    29.80F
FORT DRUM      NOT AVBL
MASSENA        MOSUNNY   74  56  53 W8G17     29.75F
SARANAC LAKE   MOSUNNY   72  49  44 VRB6G21   29.78F
PLATTSBURGH    MOSUNNY   78  54  43 W13G21    29.73R
$$

NYZ001>004-010>016-019>021-011900-
WEST


CITY           SKY/WX    TMP DP  RH WIND       PRES   REMARKS
NIAGARA FALLS  MOSUNNY   76  53  44 VRB5G17   29.85F
BUFFALO        PTSUNNY   77  57  50 SW16G22   29.86F
DUNKIRK        SUNNY     76  54  46 W13       29.90F
JAMESTOWN      PTSUNNY   72  52  49 NW13      29.94S
WELLSVILLE     SUNNY     74  51  44 W15       29.94S
ROCHESTER      MOSUNNY   77  53  43 W15G21    29.85F
PENN YAN       MOSUNNY   77  52  41 W13       29.87S
$$

             KEY
       WCI = WIND CHILL INDEX
       VSB = VISIBILITY
       HX  = HEAT INDEX
$$


USA.gov is the U.S. government's official web portal to all federal, state and local government web resources and services.